Wright-Patt AFB, OH

6:01 AM EDT on September 25, 2017 (GMT -0400)
Wright-Patterson Air Force Base

Weather History for KFFO - August, 2013

Change the Weather History Date:

Saturday, August 17, 2013

  Actual Average Record
Temperature  
Mean Temperature 70 °F -  
Max Temperature 81 °F 81 °F 93 °F (1999)
Min Temperature 58 °F 60 °F 53 °F (2004)
Cooling Degree Days 4    
Growing Degree Days 20 (Base 50)    
Moisture  
Dew Point 57 °F    
Average Humidity 70    
Maximum Humidity 85    
Minimum Humidity 43    
Precipitation  
Precipitation 0.00 in - - ()
Sea Level Pressure  
Sea Level Pressure 30.19 in    
Wind  
Wind Speed 3 mph (NE)    
Max Wind Speed 12 mph    
Max Gust Speed -    
Visibility 10 miles    
Events      
Averages and records for this station are not official NWS values.
T = Trace of Precipitation, MM = Missing Value Source: NWS Daily Summary

Daily Weather History Graph

Daily Weather History Graph

Search for Another Location

Airport or City:

Trip Planner

Search our weather history database for the weather conditions in past years. The results will help you decide how hot, cold, wet, or windy it might be!

Date:

Astronomy

Aug. 17, 2013 Rise Set
Actual Time 6:50 AM EDT 8:29 PM EDT
Civil Twilight 6:21 AM EDT 8:58 PM EDT
Nautical Twilight 5:46 AM EDT 9:32 PM EDT
Astronomical Twilight 5:09 AM EDT 10:09 PM EDT
Moon 5:43 PM EDT (8/17) 2:52 AM EDT (8/17)
Length of Visible Light 14h 36m
Length of Day
13h 39m
Waxing Gibbous, 84% of the Moon is Illuminated
Aug 17
Waxing Gibbous
Aug 20
Full
Aug 28
Last Quarter
Sep 5
New
Sep 12
First Quarter

Hourly Weather History & Observations

Time (EDT) Temp. Heat Index Dew Point Humidity Pressure Visibility Wind Dir Wind Speed Gust Speed Precip Events Conditions
12:58 AM 61.3 °F - 55.6 °F 81% 30.19 in 10.0 mi North 4.6 mph - N/A   Clear
1:58 AM 61.0 °F - 55.0 °F 81% 30.20 in 10.0 mi Calm Calm - N/A   Clear
2:58 AM 60.1 °F - 54.5 °F 82% 30.19 in 10.0 mi Calm Calm - N/A   Scattered Clouds
3:28 AM 59.0 °F - 53.6 °F 82% 30.19 in 8.0 mi Calm Calm - N/A   Scattered Clouds
3:38 AM 59.0 °F - 53.6 °F 82% 30.19 in 9.0 mi Calm Calm - N/A   Scattered Clouds
3:58 AM 59.0 °F - 54.0 °F 83% 30.19 in 10.0 mi Calm Calm - N/A   Partly Cloudy
4:08 AM 59.0 °F - 53.6 °F 82% 30.19 in 8.0 mi Calm Calm - N/A   Clear
4:18 AM 59.0 °F - 53.6 °F 82% 30.19 in 10.0 mi Calm Calm - N/A   Clear
4:28 AM 59.0 °F - 53.6 °F 82% 30.19 in 6.0 mi Calm Calm - N/A   Haze
4:34 AM 59.0 °F - 53.6 °F 82% 30.19 in 7.0 mi Calm Calm - N/A   Mostly Cloudy
4:58 AM 59.2 °F - 53.8 °F 82% 30.20 in 10.0 mi Calm Calm - N/A   Mostly Cloudy
5:58 AM 58.1 °F - 53.6 °F 85% 30.19 in 10.0 mi Variable 1.2 mph - N/A   Clear
6:58 AM 58.3 °F - 53.6 °F 84% 30.20 in 10.0 mi North 3.5 mph - N/A   Clear
7:58 AM 58.8 °F - 54.3 °F 85% 30.20 in 10.0 mi North 3.5 mph - N/A   Clear
8:58 AM 61.3 °F - 55.9 °F 82% 30.22 in 10.0 mi NNE 5.8 mph - N/A   Clear
9:58 AM 65.3 °F - 57.4 °F 76% 30.22 in 10.0 mi NNE 5.8 mph - N/A   Clear
10:47 AM 71.6 °F - 59.0 °F 64% 30.21 in 10.0 mi NE 4.6 mph - N/A   Scattered Clouds
10:58 AM 71.4 °F - 59.9 °F 67% 30.21 in 10.0 mi ENE 6.9 mph - 0.00 in   Light Drizzle
10:59 AM 71.6 °F - 59.0 °F 64% 30.21 in 10.0 mi ENE 8.1 mph - N/A   Scattered Clouds
11:58 AM 74.1 °F - 59.7 °F 61% 30.21 in 10.0 mi ENE 6.9 mph - N/A   Scattered Clouds
12:58 PM 77.2 °F - 58.1 °F 52% 30.20 in 10.0 mi ENE 9.2 mph - N/A   Clear
1:58 PM 78.1 °F - 57.6 °F 49% 30.19 in 10.0 mi ENE 5.8 mph - N/A   Scattered Clouds
2:58 PM 78.6 °F - 57.0 °F 47% 30.18 in 10.0 mi East 11.5 mph - N/A   Partly Cloudy
3:17 PM 80.6 °F 80.8 °F 57.2 °F 45% 30.19 in 10.0 mi East 8.1 mph - N/A   Scattered Clouds
3:58 PM 81.0 °F 81.0 °F 57.0 °F 44% 30.16 in 10.0 mi Variable 5.8 mph - N/A   Partly Cloudy
4:58 PM 80.2 °F 80.4 °F 55.9 °F 43% 30.16 in 10.0 mi East 9.2 mph - N/A   Partly Cloudy
5:58 PM 80.4 °F 80.7 °F 57.4 °F 45% 30.16 in 10.0 mi ENE 5.8 mph - N/A   Scattered Clouds
6:58 PM 78.4 °F - 58.3 °F 50% 30.16 in 10.0 mi ESE 8.1 mph - N/A   Scattered Clouds
7:58 PM 76.3 °F - 60.3 °F 57% 30.16 in 10.0 mi East 4.6 mph - N/A   Scattered Clouds
8:58 PM 70.3 °F - 60.8 °F 72% 30.16 in 10.0 mi North 3.5 mph - N/A   Clear
9:58 PM 68.0 °F - 60.6 °F 77% 30.16 in 8.0 mi Calm Calm - N/A   Clear
10:58 PM 67.8 °F - 61.5 °F 80% 30.16 in 10.0 mi Calm Calm - N/A   Clear
11:48 PM 66.2 °F - 59.0 °F 78% 30.17 in 9.0 mi Calm Calm - N/A   Clear
11:58 PM 65.1 °F - 59.7 °F 83% 30.17 in 10.0 mi Calm Calm - N/A   Clear